This demonstration page uses our WeatherBlox Daily Observations layout. Learn more.

Left ArrowRight Arrow

38.83388, -104.82136

Hourly Observations for January 28, 2015

Temp ( °F °C ) Dew Point ( °F °C ) Humidity (%) Winds ( mph kmh ) Pressure ( in mb ) Visibility ( mi km ) Precip ( " mm )
12:56 am 00:56 Clear 48 8.8 13 -10.6 24 24 NW 5 7 29.57 1001 10 16 N/A
1:56 am 01:56 Clear 49 9.5 17 -8.6 27 27 WSW 5 7 29.54 1000 10 16 N/A
2:56 am 02:56 Clear 46 7.9 17 -8.4 31 31 SSW 2 4 29.57 1001 10 16 N/A
3:56 am 03:56 Clear 46 8 15 -9.7 28 28 W 3 6 29.59 1002 10 16 N/A
4:56 am 04:56 Partly Cloudy 48 8.9 14 -10.2 25 25 SSW 7 11 29.61 1003 10 16 N/A
5:56 am 05:56 Mostly Clear 47 8.6 15 -9.2 28 28 SW 9 15 29.59 1002 10 16 N/A
6:56 am 06:56 Clear 43 6 17 -8.4 35 35 S 2 4 29.66 1004 10 16 N/A
7:56 am 07:56 Sunny 44 6.6 19 -7.3 37 37 SW 5 7 29.66 1004 10 16 N/A
8:56 am 08:56 Sunny 48 8.8 20 -6.6 33 33 ENE 2 4 29.64 1004 10 16 N/A
9:56 am 09:56 Sunny 49 9.2 17 -8.4 28 28 S 2 4 29.63 1003 10 16 N/A
10:56 am 10:56 Sunny 51 10.4 17 -8.2 26 26 NNE 7 11 29.67 1005 10 16 N/A
11:56 am 11:56 Mostly Sunny 51 10.4 16 -9 25 25 NNE 10 17 29.65 1004 10 16 N/A
12:56 pm 12:56 Sunny 54 12.1 15 -9.2 22 22 ESE 6 9 29.62 1003 10 16 N/A
1:56 pm 13:56 Sunny 53 11.9 14 -9.8 21 21 WNW 10 17 29.62 1003 10 16 N/A
2:33 pm 14:33 Sunny 54 12 10 -12 18 18 S 15 24 29.47 998 10 16 N/A
2:56 pm 14:56 Sunny 53 11.9 10 -12.5 17 17 E 7 11 29.63 1003 10 16 N/A
3:56 pm 15:56 Sunny 49 9.6 13 -10.4 23 23 NW 9 15 29.68 1005 10 16 N/A
4:56 pm 16:56 Mostly Sunny 49 9.4 12 -10.9 23 23 NW 12 19 29.72 1007 10 16 N/A
5:44 pm 17:44 Clear 46 8 16 -9 29 29 N 15 24 29.74 1007 10 16 N/A
5:56 pm 17:56 Clear 47 8.1 15 -9.2 29 29 NW 9 15 29.78 1009 10 16 N/A
6:56 pm 18:56 Clear 46 7.6 15 -9.6 29 29 NW 13 20 29.83 1010 10 16 N/A
7:14 pm 19:14 Clear 45 7 16 -9 31 31 N 12 19 29.80 1009 10 16 N/A
7:56 pm 19:56 Clear 43 6.2 20 -6.6 40 40 NNW 16 26 29.88 1012 10 16 N/A
8:56 pm 20:56 Clear 41 5 22 -5.4 47 47 NNW 12 19 29.88 1012 10 16 N/A
9:56 pm 21:56 Clear 37 3 28 -2.2 69 69 NW 21 33 29.92 1013 10 16 N/A
10:56 pm 22:56 Clear 37 2.5 29 -1.8 74 74 NNW 16 26 29.95 1014 10 16 N/A
11:56 pm 23:56 Mostly Clear 36 2.1 28 -2.2 73 73 NW 15 24 29.98 1015 10 16 N/A

Powered by AerisWeather